Anchialos, Greece

3:20 AM EEST on May 30, 2017 (GMT +0300)
Almiros Air Base

Weather History for LGBL - December, 2012

Change the Weather History Date:

Monday, December 3, 2012

  Actual Average Record
Temperature  
Mean Temperature 56 °F -  
Max Temperature 66 °F - - ()
Min Temperature 46 °F - - ()
Degree Days  
Heating Degree Days 9    
Growing Degree Days 6 (Base 50)    
Moisture  
Dew Point 40 °F    
Average Humidity 59    
Maximum Humidity 76    
Minimum Humidity 48    
Precipitation  
Precipitation 0.00 in - - ()
Sea Level Pressure  
Sea Level Pressure 29.62 in    
Wind  
Wind Speed 9 mph ()    
Max Wind Speed 21 mph    
Max Gust Speed 33 mph    
Visibility 6.2 miles    
Events Rain    
T = Trace of Precipitation, MM = Missing Value Source: Averaged Metar Reports

Daily Weather History Graph

Daily Weather History Graph

Search for Another Location

Airport or City:

Trip Planner

Search our weather history database for the weather conditions in past years. The results will help you decide how hot, cold, wet, or windy it might be!

Date:

Astronomy

Dec. 03, 2012 Rise Set
Actual Time 7:31 AM EET 5:05 PM EET
Civil Twilight 7:01 AM EET 5:35 PM EET
Nautical Twilight 6:28 AM EET 6:08 PM EET
Astronomical Twilight 5:56 AM EET 6:41 PM EET
Moon 9:33 PM EET (12/3) 10:45 AM EET (12/3)
Length of Visible Light 10h 33m
Length of Day
9h 34m
Waning Gibbous, 80% of the Moon is Illuminated
Dec 3
Waning Gibbous
Dec 6
Last Quarter
Dec 13
New
Dec 20
First Quarter
Dec 28
Full

Hourly Weather History & Observations

Time (EET) Temp. Windchill Dew Point Humidity Pressure Visibility Wind Dir Wind Speed Gust Speed Precip Events Conditions
12:50 AM 55.4 °F - 41.0 °F 58% 29.68 in 6.2 mi West 11.5 mph - N/A   Partly Cloudy
1:50 AM 51.8 °F - 41.0 °F 67% 29.71 in 6.2 mi NW 10.4 mph - N/A   Mostly Cloudy
2:50 AM 51.8 °F - 41.0 °F 67% 29.74 in 6.2 mi West 11.5 mph - N/A   Mostly Cloudy
3:50 AM 50.0 °F - 41.0 °F 71% 29.71 in 6.2 mi NNW 10.4 mph - N/A   Mostly Cloudy
4:50 AM 51.8 °F - 33.8 °F 50% 29.68 in 6.2 mi West 8.1 mph - N/A   Partly Cloudy
5:20 AM 51.8 °F - 33.8 °F 50% 29.68 in 6.2 mi West 8.1 mph - N/A   Partly Cloudy
5:50 AM 51.8 °F - 39.2 °F 62% 29.68 in 6.2 mi West 9.2 mph - N/A   Partly Cloudy
6:20 AM 50.0 °F - 39.2 °F 66% 29.68 in 6.2 mi NW 9.2 mph - N/A   Partly Cloudy
6:50 AM 48.2 °F - 39.2 °F 71% 29.71 in 6.2 mi NNW 4.6 mph - N/A   Partly Cloudy
7:20 AM 46.4 °F 44.3 °F 39.2 °F 76% 29.71 in 6.2 mi North 4.6 mph - N/A   Partly Cloudy
7:50 AM 48.2 °F - 39.2 °F 71% 29.71 in 6.2 mi Calm Calm - N/A   Partly Cloudy
8:20 AM 50.0 °F - 39.2 °F 66% 29.71 in 6.2 mi NNW 4.6 mph - N/A   Partly Cloudy
8:50 AM 53.6 °F - 41.0 °F 62% 29.71 in 6.2 mi Calm Calm - N/A   Partly Cloudy
9:20 AM 55.4 °F - 41.0 °F 58% 29.68 in 6.2 mi Calm Calm - N/A   Partly Cloudy
10:20 AM 57.2 °F - 42.8 °F 59% 29.68 in 6.2 mi Calm Calm - N/A   Scattered Clouds
10:50 AM 59.0 °F - 44.6 °F 59% 29.68 in 6.2 mi Calm Calm - N/A   Scattered Clouds
11:20 AM 62.6 °F - 44.6 °F 52% 29.65 in 6.2 mi East 4.6 mph - N/A   Scattered Clouds
11:50 AM 62.6 °F - 46.4 °F 55% 29.62 in 6.2 mi East 8.1 mph - N/A   Scattered Clouds
12:20 PM 66.2 °F - 46.4 °F 49% 29.62 in 6.2 mi NE 5.8 mph - N/A   Scattered Clouds
12:50 PM 62.6 °F - 42.8 °F 48% 29.62 in 6.2 mi ENE 8.1 mph - N/A   Mostly Cloudy
1:50 PM 60.8 °F - 41.0 °F 48% 29.59 in 6.2 mi West 15.0 mph - N/A   Mostly Cloudy
2:20 PM 60.8 °F - 41.0 °F 48% 29.59 in 6.2 mi West 19.6 mph 33.4 mph N/A   Mostly Cloudy
2:50 PM 60.8 °F - 42.8 °F 52% 29.56 in 6.2 mi WSW 20.7 mph 33.4 mph N/A   Mostly Cloudy
3:20 PM 60.8 °F - 42.8 °F 52% 29.56 in 6.2 mi SW 15.0 mph - N/A   Scattered Clouds
3:50 PM 60.8 °F - 41.0 °F 48% 29.56 in 6.2 mi West 9.2 mph - N/A   Mostly Cloudy
4:20 PM 57.2 °F - 41.0 °F 55% 29.56 in 6.2 mi WSW 15.0 mph - N/A   Mostly Cloudy
4:50 PM 55.4 °F - 41.0 °F 58% 29.53 in 6.2 mi SW 17.3 mph - N/A Rain Light Rain
5:20 PM 55.4 °F - 41.0 °F 58% 29.53 in 6.2 mi WSW 18.4 mph - N/A   Mostly Cloudy
5:50 PM 55.4 °F - 37.4 °F 51% 29.53 in 6.2 mi WSW 20.7 mph - N/A   Mostly Cloudy
6:20 PM 51.8 °F - 37.4 °F 58% 29.56 in 6.2 mi WNW 16.1 mph - N/A   Scattered Clouds
6:50 PM 50.0 °F - 41.0 °F 71% 29.53 in 6.2 mi WNW 9.2 mph - N/A   Scattered Clouds
7:20 PM 50.0 °F - 41.0 °F 71% 29.53 in 6.2 mi WSW 11.5 mph - N/A   Scattered Clouds
7:50 PM 48.2 °F - 41.0 °F 76% 29.53 in 6.2 mi West 11.5 mph - N/A   Partly Cloudy
8:50 PM 50.0 °F - 35.6 °F 58% 29.53 in 6.2 mi West 16.1 mph - N/A   Partly Cloudy
9:50 PM 50.0 °F - 33.8 °F 54% 29.56 in 6.2 mi WSW 15.0 mph - N/A   Partly Cloudy
10:50 PM 50.0 °F - 33.8 °F 54% 29.59 in 6.2 mi WNW 11.5 mph - N/A   Partly Cloudy
11:50 PM 48.2 °F - 32.0 °F 54% 29.62 in 6.2 mi NW 12.7 mph - N/A   Partly Cloudy